Weather reports worldwide

Advertisment
Twenthe, Netherlands (6290): temperature & dewpoint: 22.10.2020 15:00:00 - 28.10.2020 15:00:00 (CET)Twenthe, Netherlands (6290): temperature 5cm: 22.10.2020 15:00:00 - 28.10.2020 15:00:00 (CET)Twenthe, Netherlands (6290): wind speed & gusts: 22.10.2020 15:00:00 - 28.10.2020 15:00:00 (CET)Twenthe, Netherlands (6290): wind direction: 22.10.2020 15:00:00 - 28.10.2020 15:00:00 (CET)Twenthe, Netherlands (6290): reduced air pressure: 22.10.2020 15:00:00 - 28.10.2020 15:00:00 (CET)Twenthe, Netherlands (6290): visibility: 22.10.2020 15:00:00 - 28.10.2020 15:00:00 (CET)Twenthe, Netherlands (6290): precipitation: 22.10.2020 15:00:00 - 28.10.2020 15:00:00 (CET)
Date & Time tt [°C] td [°C] tt 5cm [°C] ff [km/h] ff [kn] fx [km/h] fx [kn] dd ppp [hPa] vv [km] rr [mm]
28.10.2020 15:00:00 - - - - - - - - - - -
28.10.2020 14:00:00 13,6 7,5 13,7 25 14 47 25 SW 1006,4 27 0,0
28.10.2020 13:00:00 13,9 8,6 13,1 18 10 47 25 SSW 1006,7 22 0,0
28.10.2020 12:00:00 13,8 9,3 13,5 25 14 40 21 SSW 1006,5 20 0,0
28.10.2020 11:00:00 12,4 9,4 12,1 18 10 32 18 SSW 1006,3 26 0,0
28.10.2020 10:00:00 10,9 9,5 10,5 18 10 25 14 SSW 1005,9 22 0,0
28.10.2020 09:00:00 10,2 9,1 10,0 14 8 25 14 S 1005,8 29 0,0
28.10.2020 08:00:00 9,8 9,1 9,5 11 6 40 21 SSW 1005,2 35 1,8
28.10.2020 07:00:00 9,7 8,8 8,9 14 8 25 14 SSW 1004,6 20 0,0
28.10.2020 06:00:00 10,0 9,0 9,4 14 8 22 12 SSW 1004,2 21 0,0
28.10.2020 05:00:00 9,8 9,1 8,9 14 8 25 14 SSW 1003,6 20 0,0
28.10.2020 04:00:00 10,3 9,3 9,5 18 10 29 16 SW 1003,1 24 0,0
28.10.2020 03:00:00 11,2 10,0 10,7 22 12 40 21 SW 1002,7 32 0,2
28.10.2020 02:00:00 11,4 10,5 10,9 22 12 36 19 SSW 1001,9 39 0,7
28.10.2020 01:00:00 10,5 9,8 10,3 22 12 47 25 SSW 1001,3 4,0 0,8
28.10.2020 00:00:00 10,3 9,2 10,0 25 14 43 23 S 1000,8 7 0,1
27.10.2020 23:00:00 11,0 8,0 10,5 29 16 50 27 S 1000,8 13 0,0
27.10.2020 22:00:00 11,3 7,0 11,0 29 16 54 29 S 1000,9 40 0,0
27.10.2020 21:00:00 10,9 6,9 10,6 29 16 54 29 S 1001,5 35 0,0
27.10.2020 20:00:00 11,4 5,8 10,9 25 14 40 21 S 1001,8 43 0,0
27.10.2020 19:00:00 11,2 5,6 10,6 25 14 43 23 S 1002,3 40 0,0
27.10.2020 18:00:00 11,1 5,9 10,5 25 14 43 23 S 1002,8 42 0,0
27.10.2020 17:00:00 11,3 6,3 10,8 22 12 40 21 S 1003,2 39 0,0
27.10.2020 16:00:00 11,4 6,5 11,1 25 14 36 19 SSW 1003,5 34 0,0
27.10.2020 15:00:00 11,1 6,7 10,9 18 10 36 19 SSW 1003,9 43 0,0
27.10.2020 14:00:00 11,0 6,7 10,9 25 14 40 21 SSW 1004,2 37 0,0
27.10.2020 13:00:00 11,2 6,9 11,3 22 12 36 19 SSW 1004,4 41 0,0
27.10.2020 12:00:00 10,7 6,6 10,6 29 16 47 25 SSW 1004,8 33 0,0
27.10.2020 11:00:00 10,5 7,1 10,4 22 12 40 21 SSW 1004,8 28 0,0
27.10.2020 10:00:00 9,9 7,0 10,0 22 12 43 23 SSW 1004,5 30 0,0
27.10.2020 09:00:00 9,3 6,9 9,2 25 14 36 19 SSW 1004,4 25 0,0
27.10.2020 08:00:00 9,0 7,0 8,9 18 10 36 19 SSW 1004,1 23 0,0
27.10.2020 07:00:00 9,4 7,2 9,2 22 12 29 16 SSW 1003,7 22 0,0
27.10.2020 06:00:00 9,6 7,3 9,3 18 10 29 16 SSW 1003,2 22 0,0
27.10.2020 05:00:00 9,5 7,4 9,3 14 8 29 16 SSW 1002,9 24 0,0
27.10.2020 04:00:00 9,3 7,1 8,6 18 10 25 14 SSW 1002,6 34 0,0
27.10.2020 03:00:00 9,1 6,8 8,3 14 8 32 18 SSW 1002,3 32 0,0
27.10.2020 02:00:00 9,9 7,0 9,5 18 10 32 18 SSW 1002,3 40 0,0
27.10.2020 01:00:00 9,7 7,0 8,6 18 10 29 16 SSW 1002,0 39 0,0
27.10.2020 00:00:00 9,5 6,7 8,6 22 12 40 21 SSW 1001,9 37 0,0
26.10.2020 23:00:00 10,2 6,8 9,6 22 12 36 19 S 1002,0 43 0,0
26.10.2020 22:00:00 10,5 6,6 9,9 18 10 32 18 S 1002,0 47 0,0
26.10.2020 21:00:00 10,3 6,4 9,2 22 12 32 18 S 1001,6 44 0,0
26.10.2020 20:00:00 9,7 6,1 8,5 18 10 25 14 S 1001,4 44 0,0
26.10.2020 19:00:00 10,0 6,4 9,1 18 10 32 18 S 1001,2 45 0,0
26.10.2020 18:00:00 10,4 6,6 9,7 14 8 29 16 S 1001,2 43 0,0
26.10.2020 17:00:00 10,8 6,5 10,4 18 10 32 18 S 1001,3 46 0,0
26.10.2020 16:00:00 11,1 6,6 10,7 18 10 32 18 S 1001,1 46 0,0
26.10.2020 15:00:00 11,6 6,2 11,3 25 14 32 18 SSW 1000,9 39 0,0
26.10.2020 14:00:00 11,1 5,8 10,9 22 12 32 18 SSW 1000,5 46 0,0
26.10.2020 13:00:00 10,6 6,3 10,4 22 12 40 21 SSW 1000,7 39 0,0
26.10.2020 12:00:00 11,8 7,1 11,4 22 12 40 21 SSW 1001,0 39 0,0
26.10.2020 11:00:00 11,0 7,2 10,7 22 12 40 21 SSW 1001,1 41 0,0
26.10.2020 10:00:00 10,2 7,4 10,1 22 12 36 19 SSW 1000,5 41 0,0
26.10.2020 09:00:00 9,9 8,3 9,7 14 8 22 12 SSW 1000,6 36 0,0
26.10.2020 08:00:00 9,9 8,2 9,5 14 8 25 14 SSW 1000,5 42 0,0
26.10.2020 07:00:00 9,7 8,2 9,1 14 8 22 12 S 999,5 49 0,0
26.10.2020 06:00:00 9,5 8,3 8,6 11 6 18 10 S 1000,2 50 0,0
26.10.2020 05:00:00 9,9 8,7 9,1 14 8 25 14 S 1000,1 46 0,0
26.10.2020 04:00:00 10,1 9,1 9,8 11 6 18 10 S 1000,2 49 0,0
26.10.2020 03:00:00 10,2 9,1 9,8 14 8 22 12 S 1000,2 37 0,0
26.10.2020 02:00:00 10,2 8,7 9,6 14 8 22 12 S 1000,3 35 0,0
26.10.2020 01:00:00 10,2 8,7 9,3 14 8 22 12 S 1000,9 50 0,0
26.10.2020 00:00:00 10,1 8,7 9,1 14 8 22 12 S 1001,0 49 0,0
25.10.2020 23:00:00 10,1 8,7 9,0 14 8 25 14 S 1001,1 50 0,0
25.10.2020 22:00:00 10,6 9,1 9,8 14 8 25 14 S 1001,1 48 0,0
25.10.2020 21:00:00 10,7 9,3 9,5 14 8 25 14 S 1001,0 49 0,0
25.10.2020 20:00:00 11,3 9,3 10,5 14 8 22 12 SSW 1001,6 50 0,0
25.10.2020 19:00:00 11,4 9,5 10,6 14 8 25 14 S 1001,6 50 0,0
25.10.2020 18:00:00 12,1 10,4 11,6 18 10 25 14 S 1002,1 49 0,0
25.10.2020 17:00:00 11,9 10,6 11,5 11 6 25 14 SSW 1001,6 49 0,0
25.10.2020 16:00:00 12,2 11,0 11,9 14 8 25 14 SSW 1001,3 49 0,0
25.10.2020 15:00:00 12,2 11,0 12,0 14 8 40 21 S 1001,3 43 0,5
25.10.2020 14:00:00 12,6 11,2 12,3 22 12 36 19 S 1001,3 30 0,2
25.10.2020 13:00:00 13,0 11,3 13,0 22 12 32 18 S 1002,1 41 0,1
25.10.2020 12:00:00 12,8 11,1 12,7 18 10 29 16 SSW 1002,1 48 0,0
25.10.2020 11:00:00 12,2 11,0 12,5 14 8 25 14 S 1002,2 43 0,2
25.10.2020 10:00:00 11,6 10,5 11,4 14 8 29 16 SW 1002,5 16 0,9
25.10.2020 09:00:00 11,8 10,2 11,6 14 8 54 29 SW 1002,3 28 0,3
25.10.2020 08:00:00 15,3 10,2 14,7 29 16 47 25 SSW 1001,4 46 0,0
25.10.2020 07:00:00 14,8 10,3 14,0 25 14 43 23 S 1001,1 50 0,0
25.10.2020 06:00:00 14,8 10,5 14,3 22 12 43 23 S 1001,6 50 0,0
25.10.2020 05:00:00 14,7 10,8 14,1 22 12 50 27 S 1002,0 49 0,0
25.10.2020 04:00:00 15,6 10,7 15,0 29 16 47 25 S 1002,3 50 0,0
25.10.2020 03:00:00 15,5 10,7 15,0 29 16 50 27 S 1003,0 50 0,0
25.10.2020 02:00:00 15,5 10,8 15,1 32 18 54 29 S 1003,7 50 0,0
25.10.2020 01:00:00 - - - - - - - - - - -
25.10.2020 00:00:00 15,2 11,0 14,5 32 18 54 29 S 1004,7 50 0,0
24.10.2020 23:00:00 14,4 11,0 13,6 25 14 40 21 S 1005,4 50 0,0
24.10.2020 22:00:00 14,3 11,0 13,6 25 14 43 23 S 1005,9 49 0,0
24.10.2020 21:00:00 14,4 10,9 13,6 25 14 47 25 S 1006,2 50 0,0
24.10.2020 20:00:00 14,6 10,9 13,6 25 14 43 23 S 1006,9 50 0,0
24.10.2020 19:00:00 14,4 11,0 13,7 22 12 36 19 S 1007,9 50 0,0
24.10.2020 18:00:00 13,7 11,3 12,9 22 12 40 21 S 1008,3 50 0,0
24.10.2020 17:00:00 13,9 11,8 13,4 25 14 47 25 S 1008,7 46 0,0
24.10.2020 16:00:00 14,1 11,3 13,8 22 12 32 18 S 1009,3 49 0,0
24.10.2020 15:00:00 13,5 11,5 13,4 18 10 36 19 SSW 1010,1 47 0,0
24.10.2020 14:00:00 13,3 12,4 13,5 22 12 36 19 SSW 1010,4 41 0,4
24.10.2020 13:00:00 12,7 11,9 12,8 22 12 36 19 SSW 1010,7 3,6 0,1
24.10.2020 12:00:00 12,6 11,4 12,6 18 10 36 19 SSW 1011,2 4,8 0,0
24.10.2020 11:00:00 12,5 11,6 12,5 18 10 29 16 SSW 1011,4 23 0,1
24.10.2020 10:00:00 12,3 11,7 12,3 11 6 32 18 SSW 1011,4 6 0,0
24.10.2020 09:00:00 12,5 10,7 12,1 14 8 25 14 S 1011,3 24 0,0
24.10.2020 08:00:00 11,8 9,8 11,3 14 8 29 16 SSW 1011,1 33 0,0
24.10.2020 07:00:00 11,7 10,1 11,1 14 8 25 14 SSW 1011,0 26 0,0
24.10.2020 06:00:00 11,4 9,8 10,6 18 10 32 18 SW 1011,1 30 0,0
24.10.2020 05:00:00 12,0 10,2 11,4 18 10 29 16 SW 1010,8 32 0,0
24.10.2020 04:00:00 12,2 10,3 11,8 18 10 29 16 SW 1010,7 28 0,0
24.10.2020 03:00:00 12,2 10,6 11,4 14 8 25 14 SSW 1010,6 18 0,0
24.10.2020 02:00:00 12,1 10,3 11,1 14 8 29 16 SSW 1010,8 21 0,0
24.10.2020 01:00:00 12,4 10,2 11,6 18 10 32 18 SW 1010,7 24 0,0
24.10.2020 00:00:00 13,1 10,8 11,9 18 10 25 14 SW 1010,4 27 0,0
23.10.2020 23:00:00 13,8 11,7 13,0 18 10 29 16 SW 1010,4 20 0,0
23.10.2020 22:00:00 13,4 12,2 12,3 14 8 32 18 SSW 1010,2 12 0,0
23.10.2020 21:00:00 13,1 12,6 12,1 11 6 18 10 SSW 1009,7 7 0,0
23.10.2020 20:00:00 13,1 12,7 12,3 11 6 18 10 S 1009,6 6 0,0
23.10.2020 19:00:00 12,9 12,5 12,0 11 6 14 8 S 1009,8 6 0,0
23.10.2020 18:00:00 12,9 12,1 11,6 11 6 14 8 S 1009,3 9 0,0
23.10.2020 17:00:00 14,8 13,0 14,4 11 6 18 10 S 1009,2 13 0,0
23.10.2020 16:00:00 15,1 13,2 15,0 11 6 22 12 S 1009,4 11 0,0
23.10.2020 15:00:00 15,3 12,6 15,5 14 8 22 12 S 1009,2 12 0,0
23.10.2020 14:00:00 15,3 12,5 16,0 14 8 22 12 SSE 1009,4 13 0,0
23.10.2020 13:00:00 14,5 12,8 14,9 11 6 14 8 S 1010,1 10 0,0
23.10.2020 12:00:00 14,0 11,6 14,4 7 4 11 6 SSW 1010,7 13 0,0
23.10.2020 11:00:00 13,2 11,4 13,3 7 4 11 6 S 1010,8 11 0,0
23.10.2020 10:00:00 11,7 11,5 12,0 4 2 7 4 S 1011,2 4,8 0,0
23.10.2020 09:00:00 11,0 10,9 10,9 7 4 11 6 S 1011,4 0,9 0,0
23.10.2020 08:00:00 9,9 9,9 10,0 4 2 7 4 ESE 1011,1 0,1 0,0
23.10.2020 07:00:00 10,2 10,1 10,0 4 2 7 4 S 1010,9 0,1 0,0
23.10.2020 06:00:00 10,2 10,2 9,9 7 4 14 8 S 1011,1 0,2 0,0
23.10.2020 05:00:00 9,1 9,0 6,5 7 4 11 6 S 1011,2 0,3 0,0
23.10.2020 04:00:00 10,4 10,3 9,2 7 4 14 8 SSW 1011,5 4,8 0,0
23.10.2020 03:00:00 10,5 10,4 9,0 7 4 14 8 SSW 1011,6 3,9 0,0
23.10.2020 02:00:00 10,8 10,7 9,4 7 4 18 10 SW 1011,8 3,6 0,0
23.10.2020 01:00:00 11,0 10,7 9,4 7 4 18 10 SSW 1011,9 5 0,0
23.10.2020 00:00:00 11,8 11,3 10,4 11 6 18 10 SSW 1011,7 8 0,0
22.10.2020 23:00:00 11,3 11,1 9,6 7 4 18 10 S 1011,6 2,9 0,0
22.10.2020 22:00:00 12,7 12,0 11,6 11 6 18 10 SW 1011,6 12 0,0
22.10.2020 21:00:00 13,0 12,4 11,7 14 8 22 12 SSW 1011,4 11 0,0
22.10.2020 20:00:00 13,0 12,1 11,9 11 6 18 10 SSW 1011,0 18 0,0
22.10.2020 19:00:00 13,8 12,8 12,5 11 6 18 10 SSW 1010,8 21 0,0
22.10.2020 18:00:00 14,3 13,2 13,1 11 6 22 12 SSW 1010,5 24 0,0
22.10.2020 17:00:00 15,4 13,8 14,9 14 8 22 12 S 1009,6 27 0,0
22.10.2020 16:00:00 16,2 13,7 16,2 14 8 22 12 SSW 1010,0 34 0,0
22.10.2020 15:00:00 17,0 12,4 16,8 14 8 36 19 SW 1010,1 39 0,0

tt = temperature
td = dewpoint
tt 5cm = temperature 5cm
ff = wind speed
fx = gusts
dd = wind direction
ppp = reduced air pressure
vv = visibility
rr = precipitation

Next stations